Location: Huntsville
(41.2590°N, 111.7678°W)
Time: 19:47:15
(UTC+00:00)

BlueWalker 3 - Pass Details

Date: 11 December 2022
Orbit: 499 x 517 km, 53.2° (Epoch: 29 January)

Event Time Altitude Azimuth Distance (km) Brightness Sun altitude
Rises 02:19:52 0° 301° (WNW) 2,622 6.3 -25.8°
Reaches altitude 10° 02:22:14 10° 291° (WNW) 1,728 5.4 -26.3°
Maximum altitude 02:25:43 31° 228° (SW) 898 3.6 -26.9°
Enters shadow 02:25:56 31° 221° (SW) 902 3.5 -27.0°
